Weather in Urdoma

Russia / Yaroslavl Oblast     57°56′32″N   39°35′06″E
temp.,
°C
wind,
m/s
gust,
m/s
humid.,
%
clouds,
%
prec.,
mm/h
press.,
hPa
HPBL,
m
9 may, sun
sun900:00+8e51196100 5.7 1003572
03:00+8sse2598100 7.8 1002262
06:00+7wnw3698100 0.1 1003333
09:00+5nw51096100 0.2 1006484
12:00+4nnw61197100 0.2 1009627
15:00+7nnw61079100 0.2 10121141
18:00+8n51165100 0.0 1014983
21:00+4nnw377888 0.0 1017144
10 may, mon
mon1000:00+2nw35843 0.0 102085
03:00+1nnw37820 0.0 1023125
06:00+3nnw38751 0.0 1026230
09:00+9nnw35520 0.0 1027937
12:00+12n23391 0.0 10281573
15:00+14n22381 0.0 10281562
18:00+13nnw12512 0.0 1028625
21:00+7nne11687 0.0 102910
11 may, tue
tue1100:00+6ese11715 0.0 103010
03:00+5se117277 0.0 103110
06:00+7se117091 0.0 103244
09:00+12se2254100 0.0 1032420
12:00+15ese2344100 0.0 1031871
15:00+17ese234363 0.0 10301094
18:00+17ese23568 0.0 1030238
21:00+10e12715 0.0 103010
12 may, wed
wed1200:00+8ese22790 0.0 103026
03:00+7e22780 0.0 103031
06:00+9e26750 0.0 1030145
09:00+15e465812 0.0 1029440
12:00+20ese575748 0.0 1028899
15:00+22se575675 0.0 10271364
18:00+20se4970100 0.6 1027529
21:00+16ese3584100 0.8 102680
13 may, thu
thu1300:00+14e369099 0.0 1026122
03:00+12ese399229 0.0 1025191
06:00+14ese4118458 0.0 1025333
09:00+17se5972100 0.0 1024530
12:00+18ese4107052 0.0 1023696
15:00+22se6115539 0.0 10211429
18:00+18se4126927 0.0 1021564
21:00+15se367965 0.1 1021122